www.pogodaiklimat.ru

Погода и климат >> Архив погоды >> Швейцария >> Сьон


ПОГОДА в Сьоне

  • Прогноз погоды в Сьоне
  • Монитор погоды в Сьоне

АРХИВ ПОГОДЫ в Сьоне

Время (UTC), дата Ветер
(напр.,м/с)
 
Видим.   Явления Облачность Т
(С)
Тd
(С)
f
(%)
Тe
(С)
Тes
(С)
Комфортность P
(гПа)
Po
(гПа)
Тmin
(С)
Tmax
(С)
R
(мм)
R24
(мм)
S
(см)
19 12.07 ЮЗ 4
{9}
н/о н/о +24.0 +11.8 46 +26 +26 жарко 1011.6 957.6
20 12.07 ЮЗ 3
{6}
н/о н/о +23.9 +10.7 43 +25 +25 комфорт 1012.1 958.0
21 12.07 З 5
{9}
н/о н/о +23.5 +11.8 48 +25 +25 комфорт 1012.5 958.3
22 12.07 ЮЗ 5
{8}
н/о н/о +23.1 +11.4 48 +25 +25 комфорт 1012.5 958.3
23 12.07 ЮЗ 3
{7}
н/о н/о +22.2 +10.9 49 +24 +24 комфорт 1012.9 958.5
00 13.07 ЮЗ 3
{9}
н/о н/о +21.7 +10.9 50 +24 +24 комфорт 1013.0 958.5
01 13.07 ЮЗ 3
{7}
н/о н/о +21.5 +11.0 51 +23 +23 комфорт 1013.0 958.4
02 13.07 ЮЗ 4
{7}
н/о н/о +21.2 +11.6 54 +23 +23 комфорт 1012.9 958.3
03 13.07 ЮЗ 3
{7}
н/о н/о +20.4 +12.7 61 +23 +23 комфорт 1013.7 958.9
04 13.07 З 3
{5}
н/о н/о +18.9 +11.9 64 +20 +20 1014.5 959.3
05 13.07 З 1
{5}
н/о н/о +17.9 +12.5 71 +19 +19 1015.0 959.6
06 13.07 В 1
{7}
н/о н/о +19.2 +12.7 66 +22 +22 комфорт 1014.8 959.7 +17.7
07 13.07 З 5
{6}
н/о н/о +22.0 +12.1 53 +24 +24 комфорт 1014.2 959.7
08 13.07 З 5
{8}
н/о н/о +22.7 +11.5 49 +25 +25 комфорт 1014.1 959.7
09 13.07 З 6
{9}
н/о н/о +24.6 +10.7 42 +26 +26 жарко 1013.3 959.3
10 13.07 З 7
{10}
н/о н/о +25.5 +9.9 37 +26 +26 жарко 1012.8 959.0
11 13.07 З 8
{11}
н/о н/о +26.4 +9.2 34 +27 +27 жарко 1012.1 958.5
12 13.07 З 8
{12}
н/о н/о +27.0 +8.3 31 +27 +27 жарко 1011.9 958.4
13 13.07 З 7
{10}
н/о н/о +27.3 +8.1 30 +27 +27 жарко 1011.3 957.9
14 13.07 З 6
{10}
н/о н/о +28.1 +8.9 30 +28 +28 жарко 1010.9 957.7
15 13.07 ЮЗ 6
{11}
н/о н/о +28.4 +8.5 29 +28 +28 жарко 1010.8 957.6
16 13.07 З 6
{10}
н/о н/о +27.6 +6.9 27 +27 +27 жарко 1010.9 957.6
17 13.07 З 5
{9}
н/о н/о +26.1 +7.6 31 +26 +26 жарко 1011.5 957.9
18 13.07 З 4
{11}
н/о н/о +24.9 +7.8 34 +25 +25 комфорт 1012.2 958.3 +29.0
19 13.07 З 4
{7}
н/о н/о +22.8 +7.4 37 +24 +24 комфорт 1013.2 958.9
20 13.07 ЮЗ 3
{7}
н/о н/о +21.5 +7.5 40 +22 +22 комфорт 1013.9 959.3
21 13.07 ЮЗ 2
{7}
н/о н/о +20.6 +8.0 44 +22 +22 комфорт 1014.5 959.7
22 13.07 ЮЗ 1
{5}
н/о н/о +19.3 +8.3 49 +21 +21 комфорт 1014.9 959.8
23 13.07 С 1
{2}
н/о н/о +18.5 +8.7 53 +20 +20 1015.2 959.9
00 14.07 СВ 2
{7}
н/о н/о +16.1 +8.7 61 +16 +16 1015.7 959.9
01 14.07 ЮВ 1
{2}
н/о н/о +15.6 +8.7 63 +17 +17 1015.6 959.7
02 14.07 ЮЗ 1
{3}
н/о н/о +15.3 +8.6 64 +17 +17 1015.5 959.6
03 14.07 Ю 1
{3}
н/о н/о +13.6 +9.0 74 +15 +15 1015.8 959.5
04 14.07 В 1
{2}
н/о н/о +13.3 +8.6 73 +14 +14 1015.6 959.3
05 14.07 ЮВ 1
{2}
н/о н/о +14.3 +8.8 69 +15 +15 1015.3 959.2
06 14.07 В 2
{3}
н/о н/о +16.3 +9.0 62 +16 +16 1014.7 959.0 +13.0
07 14.07 В 2
{7}
н/о н/о +18.1 +9.2 56 +19 +19 1014.0 958.7
08 14.07 СВ 1
{3}
н/о н/о +19.8 +9.4 51 +22 +22 комфорт 1013.0 958.1
09 14.07 ЮЗ 2
{7}
н/о н/о +21.5 +8.6 44 +23 +23 комфорт 1012.0 957.5
10 14.07 З 3
{5}
н/о н/о +22.7 +9.2 42 +24 +24 комфорт 1010.9 956.7
11 14.07 З 4
{7}
н/о н/о +24.5 +10.0 40 +25 +25 комфорт 1009.5 955.7
12 14.07 З 6
{9}
н/о н/о +26.2 +10.4 37 +27 +27 жарко 1008.1 954.7
13 14.07 З 7
{12}
н/о н/о +27.3 +10.3 35 +28 +28 жарко 1007.0 953.8
14 14.07 ЮЗ 7
{11}
н/о н/о +27.7 +9.3 32 +28 +28 жарко 1006.4 953.3
15 14.07 З 7
{12}
н/о н/о +27.4 +9.3 32 +28 +28 жарко 1006.2 953.1
16 14.07 З 7
{12}
н/о н/о +26.2 +9.4 35 +27 +27 жарко 1006.7 953.3
17 14.07 ЮЗ 6
{10}
н/о н/о +25.0 +9.5 37 +26 +26 жарко 1007.1 953.5
18 14.07 З 5
{12}
н/о н/о +24.9 +7.8 34 +25 +25 комфорт 1007.3 953.7 +28.9
19 14.07 З 5
{9}
н/о н/о +23.8 +7.6 35 +24 +24 комфорт 1007.9 954.0
20 14.07 З 7
{11}
н/о н/о +21.8 +10.6 49 +24 +24 комфорт 1008.7 954.4
21 14.07 З 6
{11}
н/о н/о +21.1 +10.5 51 +23 +23 комфорт 1009.0 954.6
22 14.07 З 6
{10}
н/о н/о +19.4 +11.1 59 +20 +20 1009.6 954.8
23 14.07 З 4
{10}
н/о н/о +18.5 +9.9 57 +19 +19 1010.1 955.1
00 15.07 ЮЗ 5
{13}
н/о н/о +15.8 +12.1 79 +15 +15 1011.9 956.3 0.7
01 15.07 З 2
{9}
н/о н/о +14.5 +12.6 88 +14 +14 1013.7 957.7 5
02 15.07 ЮВ 1
{2}
н/о н/о +14.4 +13.0 91 +15 +15 1013.3 957.3 1
03 15.07 Ю 1
{9}
н/о н/о +14.3 +12.8 91 +15 +15 1013.3 957.3 0.3
04 15.07 В 2
{3}
н/о н/о +14.1 +12.4 89 +14 +14 1014.2 958.1 2
05 15.07 В 1
{6}
н/о н/о +13.5 +10.1 80 +14 +14 1014.1 957.9 2
06 15.07 С 1
{9}
н/о н/о +14.2 +10.9 81 +15 +15 1013.9 957.9 +13.3
07 15.07 ЮЗ 1
{2}
н/о н/о +14.3 +11.0 81 +15 +15 1014.7 958.6
08 15.07 В 2
{4}
н/о н/о +15.5 +12.0 80 +16 +16 1014.3 958.5
09 15.07 ЮВ 1
{4}
н/о н/о +16.1 +10.5 69 +17 +17 1014.0 958.3
10 15.07 Ю 1
{2}
н/о н/о +18.0 +8.1 52 +19 +19 1013.4 958.1
11 15.07 ЮЗ 2
{4}
н/о н/о +19.6 +8.8 50 +21 +21 комфорт 1012.8 957.9
12 15.07 Ю 1
{4}
н/о н/о +21.0 +8.8 46 +24 +24 комфорт 1012.1 957.5
13 15.07 СВ 1
{3}
н/о н/о +21.9 +8.9 43 +23 +23 комфорт 1011.4 957.0
14 15.07 Ю 2
{3}
н/о н/о +22.4 +9.6 44 +24 +24 комфорт 1011.1 956.8
15 15.07 З 3
{5}
н/о н/о +25.0 +9.6 38 +26 +26 жарко 1010.2 956.4
16 15.07 З 7
{9}
н/о н/о +24.2 +10.4 42 +25 +25 комфорт 1010.0 956.1
17 15.07 З 6
{10}
н/о н/о +23.8 +11.3 45 +25 +25 комфорт 1010.1 956.1
18 15.07 З 5
{10}
н/о н/о +22.5 +11.5 50 +25 +25 комфорт 1011.0 956.7 +25.0
19 15.07 З 3
{8}
н/о н/о +20.9 +11.7 56 +23 +23 комфорт 1012.1 957.5
20 15.07 ЮЗ 2
{5}
н/о н/о +19.9 +11.3 58 +22 +22 комфорт 1013.4 958.5
21 15.07 В 1
{8}
н/о н/о +18.0 +12.4 70 +19 +19 1014.6 959.3
22 15.07 СВ 1
{2}
н/о н/о +17.4 +12.3 72 +18 +18 1015.3 959.8
23 15.07 В 2
{3}
н/о н/о +17.5 +11.7 69 +18 +18 1015.8 960.3
00 16.07 штиль 0
{8}
н/о н/о +16.2 +11.7 75 +16 +16 1016.6 960.8
01 16.07 ЮВ 1
{2}
н/о н/о +14.7 +11.8 83 +15 +15 1017.2 961.1
02 16.07 штиль 0
{1}
н/о н/о +14.6 +12.2 86 +14 +14 1017.6 961.4
03 16.07 В 1
{2}
н/о н/о +14.0 +11.2 83 +14 +14 1017.6 961.3
04 16.07 В 1
{3}
н/о н/о +13.4 +11.0 85 +14 +14 1017.9 961.5
05 16.07 СВ 1
{2}
н/о н/о +14.6 +11.3 81 +15 +15 1017.9 961.7
06 16.07 В 2
{3}
н/о н/о +16.3 +11.3 72 +17 +17 1017.6 961.8 +13.4
07 16.07 ЮВ 1
{4}
н/о н/о +18.0 +11.7 67 +19 +19 1017.2 961.7
08 16.07 В 1
{3}
н/о н/о +19.5 +11.0 58 +22 +22 комфорт 1016.3 961.2
09 16.07 З 1
{4}
н/о н/о +21.4 +11.1 52 +23 +23 комфорт 1015.3 960.6
10 16.07 Ю 2
{3}
н/о н/о +23.6 +11.5 47 +25 +25 комфорт 1014.4 960.1
11 16.07 З 3
{6}
н/о н/о +24.9 +11.0 42 +26 +26 жарко 1013.5 959.5
12 16.07 З 5
{7}
н/о н/о +25.9 +10.7 38 +27 +27 жарко 1012.4 958.7
13 16.07 З 5
{8}
н/о н/о +27.9 +11.4 36 +29 +29 жарко 1011.3 958.0
14 16.07 З 6
{10}
н/о н/о +28.9 +11.6 34 +30 +30 жарко 1010.6 957.5
15 16.07 З 8
{11}
н/о н/о +28.9 +11.0 33 +29 +29 жарко 1010.2 957.2
16 16.07 З 8
{10}
н/о н/о +28.4 +10.6 33 +29 +29 жарко 1010.1 957.0
17 16.07 З 7
{11}
н/о н/о +27.8 +11.6 37 +29 +29 жарко 1010.4 957.1
18 16.07 З 6
{11}
н/о н/о +26.8 +10.6 36 +28 +28 жарко 1010.9 957.4 +29.5
19 16.07 З 2
{8}
н/о н/о +24.3 +9.8 40 +25 +25 комфорт 1012.0 958.0
20 16.07 З 1
{4}
н/о н/о +22.6 +8.8 41 +24 +24 комфорт 1012.9 958.5
21 16.07 В 2
{8}
н/о н/о +21.0 +9.9 49 +24 +24 комфорт 1013.6 958.9
22 16.07 СВ 2
{3}
н/о н/о +20.3 +10.1 52 +22 +22 комфорт 1014.1 959.2
23 16.07 В 1
{3}
н/о н/о +18.7 +10.5 59 +21 +21 комфорт 1014.8 959.6
00 17.07 ЮВ 1
{8}
н/о н/о +17.0 +10.5 66 +18 +18 1015.6 960.0
01 17.07 штиль 0
{2}
н/о н/о +16.6 +10.3 66 +17 +17 1015.8 960.1
02 17.07 ЮВ 1
{1}
н/о н/о +15.8 +10.3 70 +17 +17 1015.9 960.1
03 17.07 ЮВ 1
{2}
н/о н/о +15.2 +10.5 74 +16 +16 1016.1 960.1
04 17.07 штиль 0
{2}
н/о н/о +15.3 +10.2 72 +15 +15 1016.0 960.1
05 17.07 ЮВ 1
{2}
н/о н/о +15.4 +10.6 73 +17 +17 1015.9 960.0
06 17.07 СВ 2
{3}
н/о н/о +17.5 +11.0 66 +18 +18 1015.4 959.9 +14.7
07 17.07 ЮВ 1
{2}
н/о н/о +19.3 +11.3 60 +22 +22 комфорт 1014.8 959.7
08 17.07 ЮЗ 1
{2}
н/о н/о +21.4 +11.4 53 +23 +23 комфорт 1013.7 959.1
09 17.07 З 1
{3}
н/о н/о +23.5 +11.9 48 +25 +25 комфорт 1012.6 958.4
10 17.07 З 3
{5}
н/о н/о +25.0 +10.7 41 +26 +26 жарко 1011.7 957.9
11 17.07 З 4
{8}
н/о н/о +26.2 +10.3 37 +27 +27 жарко 1010.9 957.3
12 17.07 З 6
{9}
н/о н/о +28.6 +10.4 32 +29 +29 жарко 1009.5 956.4
13 17.07 З 7
{10}
н/о н/о +29.4 +10.2 30 +29 +29 жарко 1008.5 955.6
14 17.07 З 7
{10}
н/о н/о +29.7 +9.0 28 +29 +29 жарко 1008.0 955.2
15 17.07 З 6
{10}
н/о н/о +30.3 +9.6 28 +30 +30 жарко 1007.7 955.0
16 17.07 З 6
{9}
н/о н/о +28.7 +8.3 28 +28 +28 жарко 1007.9 954.9
17 17.07 ЮЗ 4
{9}
н/о н/о +27.8 +7.7 28 +27 +27 жарко 1008.1 955.0
18 17.07 З 6
{10}
н/о н/о +27.0 +7.5 29 +27 +27 жарко 1008.4 955.1 +30.5
19 17.07 З 2
{9}
н/о н/о +24.9 +7.8 34 +25 +25 комфорт 1009.3 955.6
20 17.07 ЮЗ 2
{3}
н/о н/о +22.1 +8.9 43 +23 +23 комфорт 1010.5 956.2
21 17.07 З 2
{9}
н/о н/о +23.2 +8.0 38 +24 +24 комфорт 1010.7 956.6
22 17.07 Ю 1
{3}
н/о н/о +19.5 +11.2 59 +22 +22 комфорт 1011.8 956.9
23 17.07 В 1
{2}
н/о н/о +19.6 +9.8 53 +22 +22 комфорт 1012.1 957.2
00 18.07 В 2
{9}
н/о н/о +19.2 +9.4 53 +21 +21 комфорт 1012.4 957.4
01 18.07 ЮВ 1
{2}
н/о н/о +18.9 +9.1 53 +21 +21 комфорт 1012.5 957.5
02 18.07 Ю 1
{2}
н/о н/о +17.8 +10.3 61 +19 +19 1012.7 957.4
03 18.07 штиль 0
{2}
н/о н/о +16.1 +11.3 73 +16 +16 1013.2 957.6
04 18.07 В 1
{2}
н/о н/о +16.3 +10.2 67 +18 +18 1013.6 958.0
05 18.07 В 1
{2}
н/о н/о +16.1 +10.5 69 +18 +18 1014.1 958.4
06 18.07 В 2
{3}
н/о н/о +18.3 +10.1 59 +19 +19 1013.8 958.6 +15.8
07 18.07 СВ 1
{3}
н/о н/о +20.1 +9.0 49 +23 +23 комфорт 1013.6 958.7
08 18.07 ЮЗ 2
{3}
н/о н/о +21.7 +7.7 40 +23 +23 комфорт 1013.0 958.5
09 18.07 Ю 2
{4}
н/о н/о +24.2 +8.9 38 +25 +25 комфорт 1012.1 958.1
10 18.07 ЮЗ 2
{4}
н/о н/о +25.7 +9.4 36 +26 +26 жарко 1011.4 957.7
11 18.07 З 4
{6}
н/о н/о +27.9 +6.5 26 +27 +27 жарко 1010.1 956.9
12 18.07 З 4
{7}
н/о н/о +29.1 +5.7 23 +28 +28 жарко 1009.4 956.4
13 18.07 ЮЗ 4
{7}
н/о н/о +29.6 +5.7 22 +28 +28 жарко 1009.0 956.1
14 18.07 ЮЗ 3
{7}
н/о н/о +30.2 +6.4 22 +29 +29 жарко 1008.6 955.9
15 18.07 ЮЗ 5
{7}
н/о н/о +29.9 +7.5 25 +29 +29 жарко 1008.6 955.8
16 18.07 З 6
{8}
н/о н/о +29.2 +6.9 25 +28 +28 жарко 1008.7 955.8
17 18.07 З 4
{9}
н/о н/о +27.8 +8.1 29 +28 +28 жарко 1009.3 956.1
18 18.07 З 5
{9}
н/о н/о +26.2 +7.5 30 +26 +26 жарко 1010.2 956.7 +30.7
19 18.07 ЮЗ 3
{9}
н/о н/о +24.4 +8.3 36 +25 +25 комфорт 1011.0 957.1
20 18.07 ЮЗ 2
{5}
н/о н/о +23.4 +8.2 38 +25 +25 комфорт 1012.2 958.0
21 18.07 В 1
{9}
н/о н/о +22.7 +8.8 41 +24 +24 комфорт 1013.2 958.8
22 18.07 В 2
{3}
н/о н/о +21.4 +9.0 45 +23 +23 комфорт 1013.9 959.3
23 18.07 В 2
{3}
н/о н/о +20.0 +9.5 51 +22 +22 комфорт 1014.8 959.8
00 19.07 В 1
{9}
н/о н/о +19.6 +9.0 50 +22 +22 комфорт 1015.4 960.3
01 19.07 В 2
{3}
н/о н/о +17.9 +9.5 58 +19 +19 1016.0 960.6
02 19.07 штиль 0
{2}
н/о н/о +16.9 +9.8 63 +17 +17 1016.4 960.8
03 19.07 З 1
{3}
н/о н/о +17.2 +10.4 64 +19 +19 1016.8 961.2
04 19.07 Ю 1
{1}
н/о н/о +16.4 +10.1 66 +18 +18 1017.2 961.4
05 19.07 штиль 0
{1}
н/о н/о +16.4 +11.3 72 +16 +16 1017.4 961.6
06 19.07 штиль 0
{3}
н/о н/о +18.2 +11.0 63 +18 +18 1017.2 961.8 +15.4
07 19.07 В 2
{2}
н/о н/о +19.9 +10.2 54 +22 +22 комфорт 1016.9 961.8
08 19.07 ЮВ 1
{2}
н/о н/о +22.0 +10.7 49 +24 +24 комфорт 1016.0 961.4
09 19.07 Ю 1
{2}
н/о н/о +23.7 +10.6 44 +25 +25 комфорт 1015.3 961.0
10 19.07 З 2
{4}
н/о н/о +25.4 +10.8 40 +26 +26 жарко 1014.2 960.3
11 19.07 З 3
{6}
н/о н/о +26.6 +9.3 34 +27 +27 жарко 1013.4 959.8
12 19.07 З 4
{8}
н/о н/о +28.0 +11.2 35 +29 +29 жарко 1012.3 959.0
13 19.07 З 6
{9}
н/о н/о +29.3 +11.1 32 +30 +30 жарко 1011.4 958.4
14 19.07 З 7
{10}
н/о н/о +29.9 +11.2 31 +30 +30 жарко 1010.7 957.8
15 19.07 З 7
{10}
н/о н/о +29.9 +11.2 31 +30 +30 жарко 1010.4 957.5
16 19.07 З 8
{11}
н/о н/о +29.5 +10.7 31 +30 +30 жарко 1010.2 957.3
17 19.07 З 7
{11}
н/о н/о +29.1 +11.2 33 +30 +30 жарко 1010.1 957.1
18 19.07 З 5
{11}
н/о н/о +27.0 +11.6 38 +28 +28 жарко 1010.8 957.4 +30.2

 

Местоположение метеостанции Сьон (Швейцария): широта 46.22 долгота 7.33 высота над уровнем моря 481 м.

В архиве по умолчанию представлена погода в Сьоне за последнюю неделю. Архивные данные за месяц целиком и за предыдущие месяцы, начиная с января 2011 года, Вы можете получить, выбрав интересующий диапазон дат из раскрывающегося списка и нажав кнопку "Ввод!".


*Определитесь, кто Вы:
робот инопланетянин человек

Внимание! Время в таблицах - всемирное. Для получения местного времени необходимо прибавить поправку, которая равна 1 ч.

Смотрите также архив погоды в соседних городах и на ближайших метеорологических станциях:

Погода в Фее (Швейцария) (6 км)
Погода в Лез Алта (Швейцария) (14 км)
Погода на Ле-Дьяблере (Швейцария) (16 км)
Погода в Монтане (Швейцария) (16 км)
Погода в Монтанье-Баньес (Швейцария) (18 км)
Погода в Эволене (Швейцария) (18 км)
Погода в Эвьоне (Швейцария) (24 км)
Погода в Коль де Моссе (Швейцария) (26 км)
Погода в Сальване (Швейцария) (26 км)
Погода в Шато-Д`о (Швейцария) (32 км)

Пояснения к столбцам:

Ветер - указаны скорость ветра в м/с - средняя за 10 мин, порывы в срок и между сроками (в фигурных скобках) и направление, откуда дует ветер: С - северный, СВ - северо-восточный, В - восточный, ЮВ - юго-восточный, Ю - южный, ЮЗ - юго-западный, З - западный, СЗ - северо-западный.
Видимость - горизонтальная дальность видимости в метрах или километрах. При видимости от 1 до 10 км при отсутствии осадков обычно наблюдается дымка, при ухудшении видимости до 1 км и менее - туман. В сухую погоду видимость может ухудшаться дымом, пылью или мглою.
Явления - указаны атмосферные явления, наблюдавшиеся в срок или в последний час перед сроком; фигурными скобками обозначены явления, наблюдавшиеся между сроками (за 1-3 часа до срока); квадратными скобками обозначены град или гололедные отложения с указанием их диаметра в мм.
Облачность - указаны через наклонную черту общая и нижняя облачность в баллах и высота нижней границы облаков в метрах; квадратными скобками обозначены формы облаков: Ci - перистые, Cs - перисто-слоистые, Cc - перисто-кучевые, Ac - высококучевые, As - высокослоистые, Sc - слоисто-кучевые, Ns - слоисто-дождевые, Cu - кучевые, Cb - кучево-дождевые. Подробнее классификацию облаков см. в Атласе облаков (PDF).
T - Температура воздуха - температура, измеренная на высоте 2 м над землей.
Td - Температура точки росы - температура, при понижении до которой содержащийся в воздухе водяной пар достигнет насыщения.
f - Относительная влажность воздуха - влажноcть воздуха, измеренная на высоте 2 м над землей.
Te - Эффективная температура - температура, которую ощущает одетый по сезону человек в тени. Характеристика душности погоды. При расчете учитывается влияние влажности воздуха и скорости ветра на теплоощущения человека.
Tes - Эффективная температура на солнце - температура, которую ощущает человек, с поправкой на солнечный нагрев. Характеристика знойности погоды. Зависит от высоты солнца над горизонтом, облачности и скорости ветра. Ночью, в пасмурную погоду, а также при ветре 12 м/с и более поправка равна нулю.
P - Атмосферное давление - приведенное к уровню моря атмосферное давление.
Po - Атмосферное давление - измеренное на уровне метеостанции атмосферное давление.
Tmin - Минимальная температура - минимум температуры воздуха на высоте 2 м над землей.
Tmax - Максимальная температура - максимум температуры воздуха на высоте 2 м над землей.
R - Количество осадков - Количество выпавших осадков за период времени, мм. При наведении курсора мыши на число - период времени, за который выпало указанное количество осадков.
R24 - Количество осадков - Количество выпавших осадков за 24 часа, мм.
S - Снежный покров - Высота снежного покрова, см. При наведении курсора мыши на число - состояние снежного покрова и степень покрытия местности в баллах.